Lawrence, MA

7:00 PM EST on December 07, 2019 (GMT -0500)
Lawrence Municipal

Weather History for KLWM - August, 2019

Change the Weather History Date:

Wednesday, August 7, 2019

  Actual Average Record
Temperature  
Mean Temperature 74 °F -  
Max Temperature 84 °F 83 °F 96 °F (2018)
Min Temperature 66 °F 61 °F 50 °F (1934)
Cooling Degree Days 9    
Growing Degree Days 24 (Base 50)    
Moisture  
Dew Point 67 °F    
Average Humidity 83    
Maximum Humidity 96    
Minimum Humidity 64    
Precipitation  
Precipitation 1.34 in - - ()
Sea Level Pressure  
Sea Level Pressure 29.84 in    
Wind  
Wind Speed 7 mph (SW)    
Max Wind Speed 17 mph    
Max Gust Speed 26 mph    
Visibility 7 miles    
Events Rain , Thunderstorm    
Averages and records for this station are not official NWS values.
T = Trace of Precipitation, MM = Missing Value Source: NWS Daily Summary

Daily Weather History Graph

Daily Weather History Graph

Search for Another Location

Airport or City:

Astronomy

Aug. 07, 2019 Rise Set
Actual Time 5:42 AM EDT 7:57 PM EDT
Civil Twilight 5:10 AM EDT 8:29 PM EDT
Nautical Twilight 4:31 AM EDT 9:07 PM EDT
Astronomical Twilight 3:48 AM EDT 9:50 PM EDT
Moon 1:21 PM EDT (8/7) No Moon Set
Length of Visible Light 15h 18m
Length of Day
14h 15m
Waxing Crescent, 49% of the Moon is Illuminated
Aug 7
Waxing Crescent
Aug 7
First Quarter
Aug 15
Full
Aug 23
Last Quarter
Aug 30
New

Hourly Weather History & Observations

Time (EDT) Temp. Heat Index Dew Point Humidity Pressure Visibility Wind Dir Wind Speed Gust Speed Precip Events Conditions
12:54 AM 68.0 °F - 64.0 °F 87% 29.86 in 10.0 mi SSW 3.5 mph - N/A   Clear
1:54 AM 68.0 °F - 64.0 °F 87% 29.85 in 10.0 mi SSW 3.5 mph - N/A   Clear
2:54 AM 66.9 °F - 64.0 °F 90% 29.84 in 10.0 mi SSW 3.5 mph - N/A   Clear
3:54 AM 66.9 °F - 64.0 °F 90% 29.86 in 10.0 mi SSW 4.6 mph - N/A   Mostly Cloudy
4:54 AM 66.9 °F - 64.0 °F 90% 29.86 in 10.0 mi SSW 5.8 mph - N/A   Clear
5:54 AM 66.9 °F - 64.0 °F 90% 29.87 in 9.0 mi SSW 5.8 mph - N/A   Clear
6:41 AM 68.0 °F - 64.9 °F 90% 29.88 in 9.0 mi Variable 5.8 mph - N/A   Mostly Cloudy
6:54 AM 68.0 °F - 64.9 °F 90% 29.88 in 10.0 mi SSW 6.9 mph - N/A   Mostly Cloudy
7:09 AM 69.1 °F - 64.9 °F 87% 29.88 in 10.0 mi SSW 8.1 mph - N/A   Scattered Clouds
7:23 AM 70.0 °F - 66.0 °F 87% 29.88 in 10.0 mi SSW 9.2 mph - N/A   Mostly Cloudy
7:54 AM 71.1 °F - 66.9 °F 87% 29.88 in 10.0 mi SSW 8.1 mph - N/A   Mostly Cloudy
8:54 AM 73.9 °F - 66.9 °F 79% 29.87 in 10.0 mi SW 10.4 mph - N/A   Mostly Cloudy
9:01 AM 73.9 °F - 68.0 °F 82% 29.88 in 10.0 mi SSW 9.2 mph - N/A   Partly Cloudy
9:26 AM 75.0 °F - 68.0 °F 79% 29.87 in 10.0 mi South 6.9 mph - N/A   Mostly Cloudy
9:54 AM 75.9 °F - 68.0 °F 76% 29.88 in 10.0 mi SSW 11.5 mph - N/A   Overcast
10:54 AM 78.1 °F - 69.1 °F 74% 29.86 in 10.0 mi South 8.1 mph - N/A   Overcast
11:54 AM 79.0 °F - 69.1 °F 72% 29.86 in 10.0 mi SSW 13.8 mph 19.6 mph N/A   Overcast
12:54 PM 82.0 °F 85.9 °F 70.0 °F 67% 29.86 in 10.0 mi SSW 13.8 mph 19.6 mph N/A   Mostly Cloudy
1:54 PM 82.9 °F 87.0 °F 70.0 °F 65% 29.83 in 10.0 mi SW 9.2 mph 19.6 mph N/A   Mostly Cloudy
2:30 PM 82.9 °F 87.0 °F 70.0 °F 65% 29.83 in 10.0 mi Variable 4.6 mph - N/A Thunderstorm Mostly Cloudy
2:45 PM 79.0 °F - 66.0 °F 64% 29.84 in 10.0 mi SSW 17.3 mph 26.5 mph N/A Thunderstorm Thunderstorm
2:54 PM 75.0 °F - 66.0 °F 73% 29.84 in 8.0 mi SW 9.2 mph 24.2 mph 0.00 in Rain , Thunderstorm Light Thunderstorms and Rain
2:59 PM 73.9 °F - 66.9 °F 79% 29.84 in 1.8 mi West 8.1 mph - 0.01 in Rain , Thunderstorm Thunderstorms and Rain
3:08 PM 72.0 °F - 66.9 °F 84% 29.84 in 4.0 mi WSW 6.9 mph - 0.01 in Rain , Thunderstorm Light Thunderstorms and Rain
3:30 PM 73.9 °F - 68.0 °F 82% 29.83 in 10.0 mi Calm Calm - 0.01 in Thunderstorm Partly Cloudy
3:37 PM 75.0 °F - 68.0 °F 79% 29.83 in 10.0 mi Variable 3.5 mph - 0.01 in   Partly Cloudy
3:54 PM 78.1 °F - 70.0 °F 76% 29.81 in 10.0 mi SSE 8.1 mph - 0.01 in   Clear
4:54 PM 81.0 °F 84.9 °F 71.1 °F 72% 29.81 in 10.0 mi Variable 6.9 mph - N/A   Clear
5:13 PM 81.0 °F 84.9 °F 71.1 °F 72% 29.81 in 10.0 mi Variable 6.9 mph - N/A Thunderstorm Mostly Cloudy
5:54 PM 81.0 °F 84.4 °F 70.0 °F 69% 29.80 in 10.0 mi South 8.1 mph - N/A Thunderstorm Mostly Cloudy
6:43 PM 81.0 °F 84.1 °F 69.1 °F 67% 29.82 in 10.0 mi Variable 4.6 mph - N/A   Partly Cloudy
6:54 PM 81.0 °F 84.1 °F 69.1 °F 67% 29.82 in 10.0 mi South 5.8 mph - N/A   Partly Cloudy
7:54 PM 79.0 °F - 69.1 °F 72% 29.81 in 10.0 mi Variable 5.8 mph - N/A   Partly Cloudy
8:54 PM 78.1 °F - 69.1 °F 74% 29.82 in 10.0 mi South 8.1 mph 17.3 mph N/A   Partly Cloudy
9:32 PM 75.9 °F - 71.1 °F 85% 29.84 in 4.0 mi SW 8.1 mph 19.6 mph 0.05 in Rain , Thunderstorm Rain
9:47 PM 72.0 °F - 69.1 °F 91% 29.83 in 3.0 mi WNW 6.9 mph - 0.10 in Rain Heavy Rain
9:54 PM 71.1 °F - 68.0 °F 90% 29.83 in 3.0 mi WNW 3.5 mph - 0.12 in Rain , Thunderstorm Rain
9:58 PM 71.1 °F - 68.0 °F 90% 29.83 in 2.5 mi WNW 5.8 mph - 0.03 in Rain , Thunderstorm Heavy Thunderstorms and Rain
10:08 PM 70.0 °F - 68.0 °F 93% 29.84 in 1.8 mi WSW 9.2 mph - 0.12 in Rain , Thunderstorm Thunderstorms and Rain
10:15 PM 70.0 °F - 68.0 °F 93% 29.85 in 2.5 mi SW 9.2 mph - 0.19 in Rain , Thunderstorm Heavy Thunderstorms and Rain
10:21 PM 70.0 °F - 68.0 °F 93% 29.83 in 3.0 mi West 8.1 mph - 0.23 in Rain , Thunderstorm Heavy Thunderstorms and Rain
10:24 PM 69.1 °F - 66.9 °F 93% 29.83 in 2.0 mi West 8.1 mph - 0.30 in Rain , Thunderstorm Thunderstorms and Rain
10:26 PM 69.1 °F - 66.9 °F 93% 29.82 in 1.5 mi West 10.4 mph - 0.34 in Rain , Thunderstorm Heavy Thunderstorms and Rain
10:30 PM 69.1 °F - 66.9 °F 93% 29.82 in 1.5 mi West 6.9 mph - 0.38 in Rain , Thunderstorm Heavy Rain
10:44 PM 69.1 °F - 66.9 °F 93% 29.82 in 1.2 mi WSW 10.4 mph - 0.68 in Rain , Thunderstorm Heavy Thunderstorms and Rain
10:50 PM 69.8 °F - 66.2 °F 88% 29.83 in 0.8 mi WSW 8.1 mph - 0.92 in Rain , Thunderstorm Heavy Thunderstorms and Rain
10:54 PM 69.1 °F - 68.0 °F 96% 29.82 in 0.8 mi WSW 8.1 mph 17.3 mph 1.00 in Rain , Thunderstorm Heavy Thunderstorms and Rain
11:02 PM 69.1 °F - 66.9 °F 93% 29.83 in 1.2 mi South 5.8 mph - 0.08 in Rain , Thunderstorm Heavy Thunderstorms and Rain
11:06 PM 69.1 °F - 66.9 °F 93% 29.83 in 2.0 mi South 5.8 mph - 0.11 in Rain , Thunderstorm Thunderstorms and Rain
11:11 PM 69.1 °F - 66.9 °F 93% 29.83 in 3.0 mi Variable 3.5 mph - 0.12 in Rain , Thunderstorm Rain
11:54 PM 69.1 °F - 66.9 °F 93% 29.80 in 7.0 mi Calm Calm - 0.21 in Rain Light Rain